Location: Stoke Bliss
(52.2667°N, 2.5167°W)
Time: 17:29:30
(UTC+00:00)

X-37B - Pass Details

Date: 11 December 2021
Orbit: 334 x 337 km, 45.0° (Epoch: 11 January)

Event Time Altitude Azimuth Distance (km) Brightness Sun altitude
Rises 18:32:54 0° 246° (WSW) 2,103 5.6 -22.4°
Reaches altitude 10° 18:35:13 10° 227° (SW) 1,267 3.9 -22.8°
Enters shadow 18:36:18 16° 208° (SSW) 985 3.0 -23.0°
